Change the Weather History Date:

Monday, October 7, 2013

  Actual Average (KSTL) Record (KSTL)
Temperature  
Mean Temperature 59 °F 62 °F  
Max Temperature 70 °F 72 °F 92 °F (1963)
Min Temperature 48 °F 52 °F 29 °F (1952)
Degree Days  
Heating Degree Days 6 5  
Month to date heating degree days 32  
Since 1 July heating degree days 73  
Cooling Degree Days 0 2  
Month to date cooling degree days 17  
Year to date cooling degree days 1618  
Growing Degree Days 9 (Base 50)    
Moisture  
Dew Point 46 °F    
Average Humidity 75    
Maximum Humidity 96    
Minimum Humidity 36    
Precipitation  
Precipitation 0.00 in 0.11 in 1.74 in (1990)
Month to date precipitation 0.74  
Year to date precipitation 31.62  
Snow  
Snow 0.00 in 0.00 in 0.00 in (2013)
Month to date snowfall 0.0  
Since 1 July snowfall 0.0  
Since 1 September snowfall 0.0  
Snow Depth -    
Sea Level Pressure  
Sea Level Pressure 30.03 in    
Wind  
Wind Speed 8 mph (West)    
Max Wind Speed 13 mph    
Max Gust Speed 20 mph    
Visibility 9 miles    
Events      
T = Trace of Precipitation, MM = Missing Value Source: NWS Daily Summary

Daily Weather History Graph

Daily Weather History Graph

Search for Another Location

Airport or City:

Trip Planner

Search our weather history database for the weather conditions in past years. The results will help you decide how hot, cold, wet, or windy it might be!

Date:

Astronomy

Oct. 07, 2013 Rise Set
Actual Time 7:03 AM CDT 6:34 PM CDT
Civil Twilight 6:36 AM CDT 7:01 PM CDT
Nautical Twilight 6:06 AM CDT 7:32 PM CDT
Astronomical Twilight 5:35 AM CDT 8:03 PM CDT
Moon 9:52 AM CDT (10/7) 8:21 PM CDT (10/7)
Length of Visible Light 12h 24m
Length of Day
11h 31m
Waxing Crescent, 9% of the Moon is Illuminated
Oct 7
Waxing Crescent
Oct 11
First Quarter
Oct 18
Full
Oct 26
Last Quarter
Nov 3
New

Hourly Weather History & Observations

Time (CDT) Temp. Dew Point Humidity Pressure Visibility Wind Dir Wind Speed Gust Speed Precip Events Conditions
12:27 AM 51.8 °F 46.4 °F 82% 29.90 in 10.0 mi West 10.4 mph - N/A   Mostly Cloudy
12:54 AM 51.1 °F 46.9 °F 86% 29.90 in 10.0 mi West 9.2 mph - N/A   Mostly Cloudy
1:01 AM 51.8 °F 46.4 °F 82% 29.90 in 10.0 mi West 11.5 mph - N/A   Scattered Clouds
1:21 AM 51.8 °F 46.4 °F 82% 29.91 in 10.0 mi West 12.7 mph - N/A   Mostly Cloudy
1:45 AM 51.8 °F 46.4 °F 82% 29.92 in 10.0 mi West 11.5 mph - N/A   Mostly Cloudy
1:54 AM 52.0 °F 46.9 °F 83% 29.92 in 10.0 mi West 10.4 mph 19.6 mph N/A   Mostly Cloudy
2:36 AM 51.8 °F 46.4 °F 82% 29.93 in 10.0 mi West 9.2 mph - N/A   Overcast
2:54 AM 52.0 °F 46.9 °F 83% 29.92 in 10.0 mi West 6.9 mph - N/A   Overcast
3:02 AM 51.8 °F 46.4 °F 82% 29.92 in 10.0 mi West 10.4 mph - N/A   Overcast
3:54 AM 52.0 °F 46.9 °F 83% 29.94 in 10.0 mi West 10.4 mph - N/A   Mostly Cloudy
4:30 AM 51.8 °F 46.4 °F 82% 29.95 in 10.0 mi West 9.2 mph - N/A   Overcast
4:54 AM 51.1 °F 46.0 °F 83% 29.96 in 10.0 mi West 8.1 mph - N/A   Scattered Clouds
5:54 AM 51.1 °F 46.9 °F 86% 29.98 in 10.0 mi West 9.2 mph - N/A   Overcast
6:45 AM 51.8 °F 46.4 °F 82% 30.00 in 10.0 mi West 9.2 mph - N/A   Overcast
6:54 AM 52.0 °F 46.9 °F 83% 30.00 in 10.0 mi West 9.2 mph - N/A   Overcast
7:54 AM 52.0 °F 46.9 °F 83% 30.03 in 10.0 mi West 5.8 mph - N/A   Overcast
8:54 AM 53.1 °F 46.0 °F 77% 30.06 in 10.0 mi West 8.1 mph - N/A   Overcast
9:54 AM 54.0 °F 46.0 °F 75% 30.08 in 10.0 mi West 10.4 mph - N/A   Overcast
10:14 AM 55.4 °F 44.6 °F 67% 30.09 in 10.0 mi West 12.7 mph - N/A   Scattered Clouds
10:54 AM 57.9 °F 46.0 °F 65% 30.09 in 10.0 mi NW 11.5 mph - N/A   Scattered Clouds
11:54 AM 61.0 °F 46.0 °F 58% 30.10 in 10.0 mi Variable 3.5 mph - N/A   Clear
12:54 PM 64.0 °F 46.0 °F 52% 30.09 in 10.0 mi West 9.2 mph - N/A   Clear
1:54 PM 66.9 °F 45.0 °F 45% 30.07 in 10.0 mi Variable 5.8 mph - N/A   Clear
2:54 PM 66.9 °F 44.1 °F 44% 30.06 in 10.0 mi Calm Calm - N/A   Clear
3:54 PM 69.1 °F 44.1 °F 40% 30.06 in 9.0 mi WSW 3.5 mph - N/A   Clear
4:54 PM 70.0 °F 42.1 °F 36% 30.06 in 10.0 mi NW 5.8 mph - N/A   Clear
5:54 PM 69.1 °F 44.1 °F 40% 30.06 in 10.0 mi Calm Calm - N/A   Clear
6:54 PM 63.0 °F 46.0 °F 54% 30.07 in 10.0 mi Calm Calm - N/A   Clear
7:54 PM 55.9 °F 48.9 °F 77% 30.09 in 10.0 mi Calm Calm - N/A   Clear
8:54 PM 53.1 °F 52.0 °F 96% 30.11 in 10.0 mi Calm Calm - N/A   Clear
9:54 PM 52.0 °F 48.9 °F 89% 30.12 in 10.0 mi Calm Calm - N/A   Clear
10:54 PM 51.1 °F 48.0 °F 89% 30.13 in 10.0 mi Calm Calm - N/A   Clear
11:36 PM 48.2 °F 46.4 °F 93% 30.14 in 1.5 mi Calm Calm - N/A   Clear
11:44 PM 48.2 °F 46.4 °F 93% 30.14 in 2.0 mi Calm Calm - N/A   Partly Cloudy
11:52 PM 48.2 °F 46.4 °F 93% 30.14 in 4.0 mi Calm Calm - N/A   Partly Cloudy
11:54 PM 50.0 °F 46.9 °F 89% 30.14 in 3.0 mi Calm Calm - N/A   Partly Cloudy